Regional Weather Roundup
Issued by NWS

Home | Current Version | Previous Version | Graphics & Text | Print | Product List | Glossary On
Versions: 1 2 3 4 5 6 7 8 9 10 11 12 13 14 15 16 17 18 19 20 21 22 23 24 25 26 27
000
ASUS45 KBOU 282007
RWRCO

WEATHER ROUNDUP FOR COLORADO
NATIONAL WEATHER SERVICE DENVER/BOULDER CO
200 PM MDT THU JUL 28 2016

NOTE: "FAIR" INDICATES FEW OR NO CLOUDS BELOW 12000 FEET WITH NO
SIGNIFICANT WEATHER AND/OR OBSTRUCTIONS TO VISIBILITY.

COZ001>005-013-030-031-282100-
...NORTHWEST COLORADO...

CITY           SKY/WX    TMP DP  RH WIND       PRES   REMARKS
CRAIG          FAIR      92  21   7 NW12      30.21F
HAYDEN         FAIR      88  27  11 W14       30.24F
MEEKER         FAIR      94  26   9 W20G29    30.21F
MOUNT WERNER   NOT AVBL
STEAMBOAT SPGS FAIR      86  29  13 SW10      30.26F
WALDEN         FAIR      79  28  15 N12       30.36S
$$

COZ006>008-011-282100-
...WEST CENTRAL VALLEYS...

CITY           SKY/WX    TMP DP  RH WIND       PRES   REMARKS
GRAND JUNCTION FAIR      99  23   6 VRB5      30.07F
MONTROSE       FAIR      95  29   9 W8G17     30.18F
EAGLE          MOSUNNY   90  27  10 MISG      30.22F
RIFLE          FAIR      95  28   9 VRB5      30.12F
DELTA          NOT AVBL
NUCLA          NOT AVBL
$$

COZ017>023-064>068-282100-
...SOUTHWEST COLORADO...

CITY           SKY/WX    TMP DP  RH WIND       PRES   REMARKS
DURANGO        FAIR      86  35  16 NW18G32   30.26F
CORTEZ         FAIR      96  37  12 W7        30.18F
PAGOSA SPRINGS PTSUNNY   83  34  17 NE16      30.35F
TELLURIDE      FAIR      82  23  11 W13G23    30.50F
WOLF CREEK PAS CLOUDY    59  30  33 E6        30.76F
$$

COZ009-010-012-014-032>034-037-058>063-282100-
...CENTRAL COLORADO...

CITY           SKY/WX    TMP DP  RH WIND       PRES   REMARKS
ASPEN          FAIR      85  22  10 N15G28    30.33F
BUENA VISTA    FAIR      89  13   6 NW15G32   30.33F
COPPER MTN     FAIR      68  12  11 W25G33    30.71S
BERTHOUD PASS  FAIR      57  43  58 NW28G46   30.72F
COTTONWOOD PAS FAIR      81   0   4 N5        30.50F
GUNNISON       FAIR      86  30  13 NE6       30.36F
KREMMLING      FAIR      88  12   6 NW14G21   30.30F
LEADVILLE      PTSUNNY   77  15   9 W22G30    30.51F
MONARCH PASS   CLOUDY    64  23  20 MISG      30.82S
SALIDA         FAIR      89  31  12 SW7       30.35F
SUNLIGHT       NOT AVBL
WILKERSON PASS PTSUNNY   68  16  13 N9G24     30.66F
$$

COZ069>075-282100-
...SAN LUIS VALLEY/SANGRE DE CRISTO MOUNTAINS...

CITY           SKY/WX    TMP DP  RH WIND       PRES   REMARKS
ALAMOSA        FAIR      88  33  14 N7G17     30.32F
LA VETA PASS   FAIR      81  28  15 W7        30.56S
SAGUACHE       FAIR      88  25  10 NW21G33   30.34F
$$

COZ035-036-038>040-282100-
...NORTHERN COLORADO FRONT RANGE...

CITY           SKY/WX    TMP DP  RH WIND       PRES   REMARKS
DENVER INTL AP FAIR      82  57  42 NE9       30.19F
DMNS CITY PARK   N/A     78  56  45 NW8G17    30.20S
AURORA         NOT AVBL
FRONT RANGE AP PTSUNNY   84  59  42 NE16G25   30.20F
ERIE MUNI ARPT PTSUNNY   81  55  41 N9        30.19F
BOULDER MUN AP PTSUNNY   79  54  41 NE8G18    30.21F
CENTENNIAL     FAIR      80  53  39 N9G22     30.23R
BROOMFIELD     PTSUNNY   81  55  41 N17       30.23F
LONGMONT       NOT AVBL
$$

COZ041-046-047-076>085-087-088-282100-
...PIKES PEAK/PALMER DIVIDE AND SOUTHERN FOOTHILLS...

CITY           SKY/WX    TMP DP  RH WIND       PRES   REMARKS
COLO. SPRINGS  PTSUNNY   88  50  27 S10G20    30.20F
A. F. ACADEMY  NOT AVBL
SCHRIEVER AFB  NOT AVBL
ELLICOTT       NOT AVBL
FALCON         NOT AVBL
FORT CARSON    NOT AVBL
LIMON          FAIR      90  49  24 N16G25    30.15R
MONUMENT HILL  FAIR      77  54  44 N18G24    30.32R
TRINIDAD       NOT AVBL
$$

COZ042>045-048>051-090-091-282100-
...NORTHEAST COLORADO...

CITY           SKY/WX    TMP DP  RH WIND       PRES   REMARKS
GREELEY ARPT   FAIR      79  57  47 E12G22    30.19S
AKRON          FAIR      73  59  61 E16G23    30.16F
BURLINGTON     FAIR      82  60  47 NE9       30.14S
WRAY           NOT AVBL
STERLING       NOT AVBL
HOLYOKE        NOT AVBL
FORT MORGAN    NOT AVBL
$$

COZ086-089-092>099-282100-
...SOUTHEAST COLORADO...

CITY           SKY/WX    TMP DP  RH WIND       PRES   REMARKS
PUEBLO         FAIR      95  52  23 CALM      30.05F
LA JUNTA       FAIR      95  57  27 CALM      30.02F
LAMAR          FAIR      97  58  27 E20G31    29.98F
SPRINGFIELD      N/A     95  53  24 S20G28    30.04F
$$




USA.gov is the U.S. government's official web portal to all federal, state and local government web resources and services.